QPF
0.02 0.03 0.03 0.02 0.02 0.02 0.03 0.04 0.03 0.05 0.05 0.03 0.02 0.04 0.05 0.05 0.05 0.04 0.04 0.04 0.04 0.05 0.06 0.06 0.07 0.08 0.06 0.06 0.08 0.07 0.07 0.08 0.07 0.05 0.05 0.05 0.05 0.04 0.03 0.02 0.02 0.02 0.02
0.02 0.02 0.03 0.03 0.02 0.03 0.02 0.03 0.04 0.06 0.06 0.06 0.06 0.05 0.05 0.06 0.07 0.07 0.08 0.06 0.04 0.05 0.07 0.07 0.06 0.07 0.06 0.05 0.06 0.07 0.07 0.08 0.07 0.05 0.04 0.05 0.05 0.04 0.04 0.04 0.03 0.03 0.03
0.05 0.04 0.03 0.04 0.04 0.04 0.03 0.02 0.03 0.04 0.04 0.06 0.07 0.06 0.06 0.07 0.08 0.08 0.09 0.08 0.06 0.05 0.05 0.07 0.07 0.07 0.07 0.07 0.07 0.07 0.07 0.06 0.05 0.04 0.04 0.04 0.04 0.04 0.04 0.04 0.05 0.04 0.02
0.06 0.06 0.06 0.06 0.06 0.04 0.04 0.05 0.03 0.02 0.05 0.06 0.07 0.08 0.08 0.08 0.06 0.07 0.09 0.09 0.10 0.08 0.08 0.06 0.07 0.06 0.05 0.07 0.07 0.06 0.06 0.06 0.05 0.04 0.04 0.04 0.04 0.04 0.03 0.03 0.04 0.05 0.04
0.07 0.08 0.09 0.08 0.05 0.05 0.05 0.04 0.03 0.03 0.06 0.06 0.06 0.07 0.08 0.08 0.07 0.07 0.08 0.08 0.08 0.07 0.10 0.07 0.05 0.05 0.06 0.07 0.08 0.07 0.07 0.07 0.06 0.05 0.05 0.06 0.06 0.05 0.04 0.03 0.03 0.03 0.04
0.06 0.07 0.06 0.05 0.04 0.07 0.07 0.06 0.07 0.06 0.06 0.06 0.03 0.04 0.05 0.05 0.06 0.06 0.06 0.08 0.08 0.06 0.08 0.08 0.11 0.06 0.05 0.06 0.06 0.07 0.06 0.08 0.07 0.06 0.06 0.07 0.07 0.06 0.04 0.04 0.04 0.04 0.03
0.07 0.07 0.06 0.05 0.04 0.07 0.08 0.08 0.08 0.07 0.06 0.05 0.05 0.05 0.04 0.04 0.04 0.05 0.07 0.09 0.09 0.07 0.08 0.10 0.09 0.09 0.08 0.04 0.04 0.06 0.07 0.08 0.07 0.06 0.06 0.06 0.06 0.06 0.04 0.04 0.04 0.04 0.04
0.08 0.06 0.08 0.06 0.07 0.08 0.09 0.09 0.09 0.08 0.06 0.05 0.05 0.06 0.06 0.06 0.04 0.02 0.04 0.06 0.06 0.07 0.09 0.07 0.05 0.07 0.08 0.09 0.05 0.03 0.05 0.06 0.06 0.06 0.05 0.04 0.05 0.04 0.04 0.03 0.03 0.04 0.04
0.07 0.08 0.09 0.09 0.10 0.09 0.08 0.09 0.10 0.10 0.09 0.07 0.05 0.06 0.06 0.07 0.06 0.04 0.02 0.02 0.03 0.05 0.08 0.07 0.05 0.06 0.07 0.09 0.08 0.03 0.02 0.02 0.03 0.05 0.05 0.05 0.03 0.03 0.04 0.04 0.04 0.04 0.03
0.06 0.08 0.08 0.09 0.10 0.08 0.10 0.09 0.08 0.09 0.09 0.08 0.06 0.04 0.04 0.05 0.07 0.07 0.04 0.02 0.02 0.03 0.05 0.05 0.06 0.07 0.06 0.07 0.07 0.03 0.01 0.01 0.01 0.03 0.06 0.06 0.04 0.03 0.03 0.03 0.04 0.04 0.04
0.05 0.06 0.06 0.08 0.08 0.06 0.05 0.07 0.08 0.08 0.07 0.07 0.08 0.06 0.05 0.05 0.07 0.07 0.07 0.04 0.02 0.02 0.02 0.04 0.05 0.05 0.03 0.03 0.05 0.04 0.01 0.01 0.01 0.02 0.03 0.03 0.04 0.04 0.03 0.03 0.04 0.04 0.05
0.05 0.04 0.05 0.06 0.05 0.05 0.05 0.05 0.07 0.07 0.07 0.08 0.09 0.08 0.08 0.08 0.08 0.07 0.07 0.05 0.03 0.02 0.01 0.03 0.05 0.05 0.04 0.03 0.03 0.01 0.00 0.00 0.00 0.01 0.02 0.02 0.02 0.02 0.02 0.02 0.03 0.03 0.04
0.06 0.05 0.04 0.04 0.04 0.03 0.03 0.05 0.06 0.06 0.06 0.08 0.08 0.07 0.07 0.08 0.06 0.04 0.05 0.05 0.04 0.02 0.02 0.02 0.03 0.03 0.03 0.05 0.04 0.00 0.00 0.00 0.00 0.02 0.04 0.02 0.01 0.01 0.01 0.02 0.02 0.03 0.04
0.06 0.06 0.05 0.04 0.03 0.02 0.02 0.03 0.04 0.04 0.05 0.06 0.05 0.07 0.07 0.05 0.03 0.03 0.04 0.04 0.04 0.04 0.03 0.03 0.02 0.02 0.02 0.03 0.02 0.01 0.01 0.00 0.00 0.02 0.02 0.01 0.01 0.00 0.00 0.01 0.01 0.01 0.02
0.06 0.05 0.03 0.03 0.02 0.02 0.02 0.04 0.04 0.04 0.04 0.05 0.05 0.05 0.06 0.05 0.04 0.03 0.02 0.03 0.05 0.05 0.04 0.04 0.02 0.02 0.02 0.02 0.02 0.01 0.01 0.01 0.00 0.01 0.01 0.01 0.00 0.00 0.00 0.00 0.00 0.00 0.00
0.06 0.04 0.03 0.03 0.03 0.03 0.03 0.04 0.04 0.04 0.04 0.04 0.04 0.04 0.04 0.04 0.03 0.02 0.02 0.03 0.03 0.04 0.04 0.03 0.02 0.01 0.01 0.01 0.01 0.01 0.01 0.00 0.00 0.00 0.01 0.01 0.01 0.01 0.00 0.00 0.00 0.00 0.00
0.08 0.04 0.03 0.03 0.04 0.03 0.03 0.04 0.03 0.04 0.03 0.03 0.02 0.02 0.03 0.03 0.03 0.03 0.02 0.02 0.02 0.02 0.03 0.03 0.01 0.01 0.01 0.01 0.01 0.01 0.01 0.01 0.02 0.00 0.00 0.00 0.00 0.00 0.00 0.00 0.00 0.00 0.01
0.06 0.04 0.03 0.03 0.03 0.03 0.03 0.03 0.03 0.03 0.03 0.03 0.02 0.02 0.02 0.02 0.03 0.02 0.02 0.02 0.01 0.01 0.02 0.02 0.01 0.01 0.01 0.01 0.01 0.01 0.00 0.01 0.01 0.00 0.00 0.00 0.00 0.00 0.00 0.00 0.00 0.00 0.00
0.06 0.05 0.04 0.04 0.03 0.02 0.03 0.04 0.04 0.03 0.03 0.03 0.03 0.02 0.02 0.02 0.02 0.02 0.02 0.02 0.02 0.01 0.02 0.02 0.01 0.01 0.00 0.00 0.01 0.01 0.01 0.01 0.00 0.00 0.00 0.00 0.00 0.00 0.00 0.00 0.00 0.00 0.00
0.07 0.06 0.05 0.05 0.05 0.05 0.04 0.04 0.04 0.04 0.03 0.04 0.04 0.04 0.03 0.03 0.02 0.02 0.02 0.02 0.02 0.02 0.02 0.02 0.02 0.01 0.01 0.00 0.01 0.01 0.01 0.01 0.01 0.00 0.00 0.00 0.00 0.00 0.00 0.00 0.00 0.00 0.00
0.07 0.07 0.07 0.06 0.05 0.05 0.06 0.05 0.05 0.05 0.05 0.04 0.03 0.03 0.02 0.02 0.02 0.02 0.02 0.02 0.02 0.02 0.02 0.02 0.02 0.01 0.02 0.02 0.01 0.02 0.02 0.01 0.01 0.01 0.00 0.00 0.00 0.00 0.01 0.01 0.00 0.00 0.01
0.07 0.06 0.07 0.06 0.05 0.04 0.05 0.07 0.08 0.07 0.08 0.07 0.05 0.03 0.02 0.01 0.02 0.02 0.02 0.02 0.02 0.03 0.03 0.03 0.02 0.02 0.02 0.03 0.03 0.02 0.02 0.02 0.01 0.01 0.01 0.00 0.00 0.00 0.00 0.00 0.00 0.00 0.00
0.07 0.06 0.06 0.06 0.06 0.05 0.04 0.05 0.05 0.07 0.08 0.08 0.07 0.05 0.03 0.02 0.03 0.03 0.03 0.03 0.02 0.03 0.03 0.03 0.03 0.03 0.03 0.04 0.04 0.03 0.03 0.02 0.02 0.01 0.01 0.01 0.00 0.00 0.00 0.00 0.00 0.00 0.00
0.07 0.09 0.07 0.06 0.06 0.06 0.04 0.03 0.03 0.03 0.04 0.04 0.04 0.04 0.04 0.03 0.02 0.02 0.03 0.03 0.04 0.04 0.04 0.04 0.04 0.04 0.03 0.03 0.03 0.03 0.03 0.03 0.02 0.02 0.02 0.01 0.01 0.01 0.00 0.00 0.00 0.00 0.00
0.08 0.08 0.06 0.05 0.05 0.04 0.03 0.04 0.04 0.02 0.03 0.03 0.03 0.03 0.04 0.04 0.03 0.02 0.02 0.04 0.04 0.05 0.04 0.04 0.04 0.03 0.02 0.01 0.02 0.02 0.02 0.02 0.02 0.01 0.01 0.01 0.01 0.01 0.00 0.00 0.00 0.00 0.00
0.07 0.06 0.05 0.04 0.04 0.03 0.02 0.03 0.03 0.02 0.03 0.03 0.03 0.03 0.04 0.04 0.03 0.02 0.02 0.03 0.03 0.03 0.02 0.02 0.02 0.02 0.02 0.02 0.01 0.01 0.01 0.01 0.01 0.01 0.01 0.01 0.01 0.01 0.00 0.00 0.00 0.00 0.00
MSLP
1015.76 1016.00 1016.16 1016.27 1016.34 1016.41 1016.49 1016.58 1016.69 1016.78 1016.84 1016.87 1016.88 1016.88 1016.91 1017.00 1017.18 1017.46 1017.84 1018.28 1018.74 1019.16 1019.52 1019.78 1019.95 1020.05 1020.11 1020.16 1020.25 1020.37 1020.54 1020.73 1020.92 1021.09 1021.21 1021.30 1021.35 1021.39 1021.44 1021.52 1021.64 1021.78 1021.95
1015.73 1015.95 1016.11 1016.22 1016.30 1016.38 1016.48 1016.59 1016.72 1016.85 1016.95 1017.02 1017.06 1017.09 1017.11 1017.18 1017.31 1017.53 1017.83 1018.20 1018.59 1018.98 1019.33 1019.62 1019.84 1020.00 1020.12 1020.24 1020.36 1020.51 1020.67 1020.84 1021.00 1021.13 1021.23 1021.30 1021.34 1021.38 1021.43 1021.51 1021.62 1021.75 1021.90
1015.68 1015.89 1016.06 1016.18 1016.29 1016.40 1016.53 1016.69 1016.85 1017.02 1017.16 1017.27 1017.33 1017.35 1017.36 1017.38 1017.45 1017.58 1017.78 1018.05 1018.37 1018.71 1019.04 1019.34 1019.61 1019.83 1020.02 1020.20 1020.37 1020.53 1020.69 1020.84 1020.97 1021.07 1021.14 1021.19 1021.23 1021.27 1021.32 1021.41 1021.52 1021.65 1021.79
1015.61 1015.83 1016.00 1016.16 1016.31 1016.46 1016.64 1016.83 1017.04 1017.24 1017.41 1017.53 1017.60 1017.61 1017.59 1017.56 1017.55 1017.59 1017.69 1017.87 1018.10 1018.38 1018.69 1019.00 1019.29 1019.57 1019.82 1020.04 1020.25 1020.43 1020.58 1020.71 1020.81 1020.89 1020.93 1020.97 1021.00 1021.04 1021.11 1021.21 1021.33 1021.46 1021.60
1015.54 1015.76 1015.96 1016.15 1016.34 1016.54 1016.76 1016.99 1017.23 1017.45 1017.63 1017.76 1017.82 1017.82 1017.77 1017.70 1017.62 1017.59 1017.61 1017.69 1017.85 1018.08 1018.35 1018.65 1018.95 1019.25 1019.54 1019.79 1020.02 1020.21 1020.36 1020.47 1020.55 1020.60 1020.63 1020.65 1020.69 1020.74 1020.82 1020.93 1021.07 1021.22 1021.36
1015.49 1015.72 1015.94 1016.16 1016.39 1016.63 1016.87 1017.13 1017.37 1017.60 1017.78 1017.90 1017.96 1017.94 1017.88 1017.78 1017.67 1017.58 1017.55 1017.58 1017.68 1017.85 1018.08 1018.35 1018.65 1018.95 1019.24 1019.51 1019.74 1019.92 1020.07 1020.17 1020.23 1020.27 1020.29 1020.31 1020.35 1020.42 1020.51 1020.64 1020.79 1020.95 1021.10
1015.52 1015.74 1015.97 1016.21 1016.46 1016.71 1016.97 1017.22 1017.46 1017.67 1017.83 1017.94 1017.98 1017.97 1017.90 1017.81 1017.70 1017.60 1017.55 1017.54 1017.61 1017.73 1017.92 1018.16 1018.42 1018.70 1018.98 1019.23 1019.45 1019.64 1019.78 1019.88 1019.94 1019.97 1020.00 1020.03 1020.07 1020.15 1020.25 1020.39 1020.55 1020.71 1020.86
1015.63 1015.84 1016.07 1016.31 1016.56 1016.81 1017.05 1017.28 1017.49 1017.66 1017.80 1017.89 1017.92 1017.92 1017.87 1017.80 1017.72 1017.64 1017.60 1017.59 1017.64 1017.73 1017.88 1018.07 1018.29 1018.52 1018.77 1019.00 1019.21 1019.39 1019.54 1019.65 1019.73 1019.78 1019.82 1019.87 1019.92 1020.00 1020.10 1020.23 1020.38 1020.54 1020.68
1015.82 1016.03 1016.24 1016.46 1016.69 1016.92 1017.13 1017.32 1017.49 1017.62 1017.71 1017.77 1017.81 1017.81 1017.79 1017.76 1017.73 1017.70 1017.68 1017.69 1017.73 1017.80 1017.90 1018.04 1018.20 1018.39 1018.60 1018.81 1019.01 1019.20 1019.37 1019.52 1019.63 1019.72 1019.80 1019.86 1019.92 1020.00 1020.09 1020.20 1020.32 1020.45 1020.57
1016.08 1016.27 1016.46 1016.66 1016.86 1017.05 1017.22 1017.37 1017.48 1017.56 1017.62 1017.65 1017.67 1017.69 1017.70 1017.71 1017.72 1017.74 1017.76 1017.78 1017.81 1017.86 1017.92 1018.01 1018.11 1018.25 1018.42 1018.61 1018.82 1019.04 1019.25 1019.45 1019.62 1019.77 1019.89 1019.98 1020.06 1020.12 1020.19 1020.26 1020.34 1020.43 1020.52
1016.33 1016.51 1016.69 1016.87 1017.04 1017.19 1017.32 1017.42 1017.49 1017.52 1017.54 1017.54 1017.55 1017.57 1017.60 1017.64 1017.69 1017.74 1017.78 1017.81 1017.83 1017.85 1017.87 1017.90 1017.96 1018.05 1018.19 1018.37 1018.60 1018.85 1019.12 1019.38 1019.63 1019.84 1020.02 1020.15 1020.24 1020.30 1020.34 1020.37 1020.39 1020.43 1020.46
1016.52 1016.70 1016.87 1017.03 1017.18 1017.31 1017.41 1017.47 1017.50 1017.50 1017.48 1017.46 1017.45 1017.46 1017.50 1017.55 1017.61 1017.68 1017.73 1017.75 1017.75 1017.74 1017.71 1017.69 1017.70 1017.76 1017.87 1018.05 1018.29 1018.59 1018.91 1019.25 1019.57 1019.85 1020.09 1020.26 1020.37 1020.43 1020.44 1020.43 1020.40 1020.38 1020.36
1016.58 1016.77 1016.94 1017.10 1017.25 1017.37 1017.45 1017.50 1017.51 1017.48 1017.44 1017.40 1017.37 1017.37 1017.40 1017.45 1017.50 1017.56 1017.60 1017.61 1017.58 1017.53 1017.46 1017.40 1017.37 1017.39 1017.48 1017.65 1017.91 1018.23 1018.60 1018.99 1019.37 1019.72 1020.00 1020.21 1020.35 1020.41 1020.41 1020.37 1020.30 1020.23 1020.17
1016.48 1016.68 1016.87 1017.04 1017.20 1017.33 1017.41 1017.46 1017.46 1017.43 1017.38 1017.33 1017.29 1017.28 1017.29 1017.33 1017.37 1017.41 1017.43 1017.41 1017.36 1017.28 1017.18 1017.08 1017.01 1017.00 1017.07 1017.22 1017.47 1017.80 1018.18 1018.60 1019.02 1019.40 1019.72 1019.96 1020.11 1020.18 1020.18 1020.13 1020.05 1019.95 1019.85
1016.18 1016.42 1016.63 1016.83 1017.00 1017.15 1017.26 1017.32 1017.34 1017.32 1017.28 1017.23 1017.19 1017.17 1017.17 1017.19 1017.23 1017.25 1017.26 1017.23 1017.16 1017.05 1016.93 1016.81 1016.72 1016.68 1016.71 1016.84 1017.05 1017.35 1017.72 1018.12 1018.52 1018.90 1019.22 1019.48 1019.65 1019.73 1019.75 1019.71 1019.63 1019.53 1019.43
1015.72 1015.99 1016.23 1016.45 1016.66 1016.83 1016.97 1017.05 1017.10 1017.10 1017.08 1017.05 1017.02 1017.01 1017.02 1017.05 1017.08 1017.11 1017.11 1017.08 1017.02 1016.92 1016.79 1016.66 1016.55 1016.49 1016.49 1016.56 1016.72 1016.96 1017.26 1017.60 1017.95 1018.29 1018.58 1018.82 1018.99 1019.09 1019.13 1019.12 1019.06 1018.99 1018.91
1015.13 1015.42 1015.69 1015.94 1016.17 1016.37 1016.53 1016.65 1016.72 1016.76 1016.77 1016.77 1016.77 1016.79 1016.82 1016.87 1016.92 1016.97 1017.00 1016.99 1016.95 1016.88 1016.78 1016.66 1016.55 1016.47 1016.43 1016.46 1016.54 1016.69 1016.89 1017.13 1017.38 1017.64 1017.87 1018.06 1018.21 1018.32 1018.39 1018.41 1018.41 1018.38 1018.34
1014.45 1014.76 1015.05 1015.32 1015.57 1015.79 1015.97 1016.12 1016.22 1016.29 1016.34 1016.37 1016.41 1016.47 1016.53 1016.62 1016.71 1016.79 1016.86 1016.91 1016.92 1016.89 1016.83 1016.75 1016.66 1016.58 1016.52 1016.49 1016.49 1016.54 1016.63 1016.75 1016.88 1017.02 1017.17 1017.29 1017.41 1017.51 1017.59 1017.66 1017.70 1017.74 1017.75
1013.73 1014.04 1014.34 1014.62 1014.88 1015.12 1015.32 1015.48 1015.61 1015.71 1015.79 1015.86 1015.94 1016.03 1016.14 1016.27 1016.40 1016.53 1016.66 1016.76 1016.82 1016.86 1016.86 1016.83 1016.77 1016.71 1016.64 1016.58 1016.53 1016.49 1016.47 1016.46 1016.47 1016.49 1016.53 1016.58 1016.65 1016.72 1016.81 1016.90 1017.00 1017.08 1017.16
1012.97 1013.28 1013.58 1013.87 1014.14 1014.38 1014.60 1014.77 1014.91 1015.03 1015.14 1015.24 1015.35 1015.48 1015.62 1015.78 1015.96 1016.14 1016.30 1016.46 1016.58 1016.68 1016.74 1016.77 1016.77 1016.74 1016.69 1016.62 1016.53 1016.44 1016.33 1016.23 1016.13 1016.04 1015.98 1015.95 1015.95 1015.99 1016.06 1016.17 1016.30 1016.43 1016.55
1012.20 1012.50 1012.80 1013.09 1013.36 1013.61 1013.82 1014.00 1014.15 1014.28 1014.40 1014.52 1014.66 1014.81 1014.98 1015.16 1015.36 1015.57 1015.77 1015.96 1016.12 1016.27 1016.39 1016.48 1016.53 1016.56 1016.54 1016.49 1016.41 1016.29 1016.15 1015.98 1015.81 1015.64 1015.49 1015.38 1015.32 1015.31 1015.36 1015.46 1015.60 1015.76 1015.92
1011.40 1011.68 1011.97 1012.26 1012.53 1012.78 1013.00 1013.18 1013.34 1013.48 1013.61 1013.74 1013.88 1014.04 1014.22 1014.42 1014.62 1014.84 1015.05 1015.25 1015.44 1015.61 1015.77 1015.90 1016.01 1016.09 1016.13 1016.13 1016.08 1015.98 1015.84 1015.65 1015.44 1015.23 1015.03 1014.86 1014.74 1014.68 1014.70 1014.77 1014.90 1015.07 1015.24
1010.59 1010.84 1011.12 1011.40 1011.67 1011.91 1012.13 1012.31 1012.47 1012.61 1012.75 1012.89 1013.04 1013.21 1013.39 1013.58 1013.78 1013.99 1014.19 1014.38 1014.57 1014.75 1014.92 1015.09 1015.24 1015.36 1015.46 1015.52 1015.52 1015.47 1015.36 1015.20 1014.99 1014.76 1014.54 1014.33 1014.17 1014.07 1014.05 1014.09 1014.19 1014.33 1014.50
1009.78 1009.99 1010.23 1010.49 1010.74 1010.97 1011.18 1011.36 1011.52 1011.67 1011.82 1011.97 1012.13 1012.31 1012.50 1012.69 1012.89 1013.08 1013.26 1013.44 1013.60 1013.77 1013.94 1014.11 1014.27 1014.43 1014.57 1014.69 1014.75 1014.76 1014.70 1014.59 1014.42 1014.21 1013.99 1013.77 1013.60 1013.47 1013.40 1013.41 1013.47 1013.58 1013.72
1009.00 1009.15 1009.34 1009.55 1009.77 1009.97 1010.15 1010.32 1010.47 1010.62 1010.78 1010.95 1011.14 1011.34 1011.55 1011.76 1011.97 1012.16 1012.33 1012.49 1012.64 1012.78 1012.92 1013.08 1013.24 1013.41 1013.57 1013.72 1013.83 1013.89 1013.89 1013.84 1013.72 1013.55 1013.36 1013.17 1012.99 1012.85 1012.76 1012.74 1012.77 1012.84 1012.94
1008.32 1008.37 1008.48 1008.61 1008.76 1008.90 1009.04 1009.17 1009.30 1009.45 1009.61 1009.81 1010.03 1010.27 1010.53 1010.78 1011.02 1011.24 1011.42 1011.58 1011.71 1011.83 1011.95 1012.08 1012.22 1012.37 1012.53 1012.69 1012.82 1012.92 1012.98 1012.97 1012.91 1012.80 1012.66 1012.50 1012.35 1012.23 1012.14 1012.10 1012.11 1012.15 1012.22
Thickness
5752 5750 5749 5748 5750 5749 5747 5746 5746 5745 5745 5745 5746 5745 5745 5743 5742 5740 5735 5731 5729 5728 5726 5725 5723 5721 5720 5718 5717 5715 5714 5712 5711 5709 5709 5708 5707 5705 5704 5704 5703 5702 5701
5750 5748 5747 5746 5747 5747 5747 5745 5744 5743 5744 5744 5743 5742 5742 5741 5739 5737 5736 5731 5728 5727 5725 5724 5722 5720 5719 5717 5716 5714 5712 5711 5709 5708 5707 5706 5705 5704 5703 5702 5701 5700 5700
5746 5746 5747 5745 5745 5744 5743 5742 5742 5742 5742 5742 5741 5741 5740 5739 5737 5735 5734 5732 5730 5727 5725 5723 5722 5720 5718 5717 5715 5713 5712 5710 5709 5707 5706 5705 5704 5703 5702 5701 5700 5699 5698
5744 5743 5745 5744 5742 5743 5743 5742 5742 5742 5741 5741 5740 5740 5739 5737 5736 5735 5734 5732 5730 5730 5726 5723 5721 5720 5718 5717 5715 5713 5711 5710 5708 5707 5706 5705 5704 5702 5701 5700 5699 5698 5697
5742 5742 5743 5742 5741 5741 5741 5742 5742 5741 5739 5738 5739 5737 5738 5737 5735 5735 5734 5732 5730 5729 5728 5723 5721 5719 5718 5716 5715 5713 5712 5710 5708 5707 5706 5704 5703 5702 5701 5699 5698 5697 5696
5741 5740 5741 5739 5740 5740 5739 5739 5737 5736 5736 5736 5739 5737 5736 5736 5735 5734 5734 5733 5730 5729 5728 5726 5722 5720 5718 5716 5714 5713 5711 5710 5709 5707 5706 5705 5704 5702 5701 5699 5697 5696 5695
5740 5739 5740 5738 5738 5738 5737 5737 5736 5734 5734 5735 5734 5732 5734 5736 5735 5734 5734 5733 5732 5729 5727 5725 5723 5722 5718 5715 5714 5712 5710 5710 5708 5707 5706 5705 5704 5702 5700 5699 5697 5696 5695
5738 5739 5738 5738 5737 5735 5734 5734 5732 5733 5734 5734 5732 5730 5727 5728 5731 5736 5734 5732 5731 5729 5727 5726 5723 5721 5720 5717 5714 5712 5710 5709 5708 5707 5706 5705 5703 5702 5700 5699 5698 5696 5695
5737 5737 5736 5737 5735 5735 5734 5732 5732 5730 5730 5732 5734 5730 5725 5724 5727 5731 5731 5732 5730 5729 5728 5726 5724 5721 5719 5717 5715 5712 5710 5708 5707 5706 5705 5704 5703 5702 5700 5699 5697 5696 5695
5736 5735 5735 5734 5734 5735 5733 5732 5733 5731 5729 5729 5730 5731 5730 5729 5725 5724 5728 5731 5729 5727 5727 5727 5725 5721 5719 5718 5714 5712 5709 5707 5706 5704 5704 5703 5702 5701 5700 5698 5697 5697 5696
5735 5735 5734 5733 5733 5733 5732 5731 5730 5730 5730 5730 5730 5730 5728 5728 5729 5725 5722 5725 5727 5729 5728 5726 5725 5723 5720 5718 5716 5713 5709 5706 5705 5704 5702 5702 5701 5700 5699 5698 5697 5697 5696
5735 5734 5733 5732 5731 5732 5730 5730 5729 5728 5728 5728 5728 5729 5728 5727 5727 5727 5724 5723 5724 5727 5727 5727 5725 5723 5721 5719 5716 5712 5708 5706 5704 5703 5702 5702 5701 5700 5699 5698 5697 5697 5696
5735 5733 5733 5731 5731 5730 5729 5729 5727 5728 5727 5725 5725 5727 5729 5729 5730 5729 5726 5725 5724 5726 5725 5726 5726 5723 5722 5719 5716 5711 5708 5706 5704 5703 5702 5702 5701 5700 5699 5698 5697 5697 5696
5736 5734 5732 5730 5730 5729 5729 5727 5728 5727 5726 5725 5726 5725 5726 5729 5730 5729 5727 5724 5721 5722 5723 5724 5726 5724 5721 5719 5715 5711 5709 5706 5704 5703 5702 5702 5701 5700 5699 5698 5697 5696 5695
5735 5733 5731 5729 5729 5729 5728 5726 5727 5725 5725 5725 5726 5724 5725 5728 5728 5728 5728 5726 5721 5717 5718 5721 5723 5724 5720 5718 5714 5712 5711 5706 5704 5703 5701 5701 5700 5699 5698 5697 5696 5695 5694
5734 5732 5730 5729 5728 5727 5726 5725 5725 5725 5724 5723 5723 5723 5723 5726 5727 5726 5725 5725 5723 5719 5717 5722 5720 5722 5718 5719 5713 5712 5710 5706 5704 5703 5701 5700 5699 5698 5697 5696 5695 5694 5693
5732 5731 5730 5728 5727 5726 5726 5724 5726 5724 5723 5723 5723 5722 5721 5721 5723 5724 5723 5723 5721 5719 5715 5719 5721 5719 5714 5713 5713 5711 5711 5708 5708 5704 5702 5700 5698 5697 5696 5695 5694 5693 5692
5732 5730 5729 5727 5726 5726 5725 5724 5724 5724 5723 5722 5721 5720 5720 5720 5718 5720 5720 5720 5718 5716 5714 5712 5715 5716 5712 5711 5710 5708 5711 5711 5709 5705 5702 5700 5698 5697 5695 5694 5693 5692 5690
5731 5730 5728 5726 5726 5725 5723 5723 5723 5723 5722 5721 5720 5718 5718 5717 5715 5717 5715 5716 5716 5716 5713 5712 5712 5713 5712 5711 5708 5707 5709 5706 5707 5707 5703 5700 5698 5696 5694 5693 5692 5690 5689
5731 5729 5727 5726 5725 5724 5723 5722 5721 5720 5720 5719 5718 5717 5717 5716 5714 5713 5712 5711 5711 5711 5710 5710 5711 5711 5708 5708 5705 5706 5706 5707 5706 5707 5704 5701 5698 5696 5694 5692 5690 5688 5686
5730 5728 5726 5725 5724 5723 5723 5721 5719 5718 5717 5716 5716 5715 5715 5714 5711 5710 5712 5711 5709 5708 5709 5708 5707 5707 5706 5703 5703 5704 5703 5703 5703 5703 5702 5701 5700 5698 5696 5692 5689 5686 5682
5728 5726 5725 5724 5723 5724 5721 5718 5717 5717 5715 5714 5713 5713 5713 5710 5707 5704 5704 5703 5702 5703 5704 5703 5704 5702 5700 5701 5699 5699 5698 5697 5695 5700 5696 5697 5698 5696 5695 5692 5688 5683 5679
5726 5724 5723 5723 5722 5720 5717 5714 5712 5713 5713 5713 5712 5711 5713 5713 5707 5707 5702 5698 5698 5696 5695 5697 5699 5698 5697 5697 5694 5693 5691 5690 5689 5692 5689 5689 5692 5691 5691 5690 5683 5678 5674
5724 5722 5722 5721 5719 5718 5713 5711 5709 5710 5712 5711 5711 5710 5709 5709 5708 5704 5703 5702 5701 5699 5695 5693 5694 5694 5694 5692 5689 5687 5686 5684 5684 5685 5684 5681 5685 5685 5686 5683 5677 5673 5669
5721 5720 5720 5719 5717 5715 5711 5708 5706 5709 5709 5709 5709 5709 5707 5705 5701 5698 5697 5697 5696 5695 5693 5690 5687 5686 5684 5682 5681 5681 5681 5679 5679 5682 5681 5677 5678 5677 5678 5677 5673 5668 5663
5719 5718 5717 5717 5716 5714 5710 5706 5703 5708 5708 5708 5707 5706 5702 5700 5696 5692 5693 5692 5689 5689 5690 5688 5683 5681 5680 5678 5674 5673 5675 5674 5674 5674 5676 5670 5669 5668 5667 5671 5668 5663 5658